Weather History for KNCA - November, 2012

Change the Weather History Date:

Tuesday, November 13, 2012

  Actual Average Record
Temperature  
Mean Temperature 56 °F -  
Max Temperature 66 °F 63 °F 75 °F (2008)
Min Temperature 46 °F 41 °F 27 °F (1996)
Degree Days  
Heating Degree Days 9    
Growing Degree Days 6 (Base 50)    
Moisture  
Dew Point 54 °F    
Average Humidity 90    
Maximum Humidity 94    
Minimum Humidity 82    
Precipitation  
Precipitation 0.06 in - - ()
Sea Level Pressure  
Sea Level Pressure 30.23 in    
Wind  
Wind Speed 3 mph (North)    
Max Wind Speed 17 mph    
Max Gust Speed 24 mph    
Visibility 4 miles    
Events Fog , Rain    
Averages and records for this station are not official NWS values.
T = Trace of Precipitation, MM = Missing Value Source: NWS Daily Summary

Daily Weather History Graph

Daily Weather History Graph

Search for Another Location

Airport or City:

Trip Planner

Search our weather history database for the weather conditions in past years. The results will help you decide how hot, cold, wet, or windy it might be!

Date:

Astronomy

Nov. 13, 2012 Rise Set
Actual Time 6:42 AM EST 5:05 PM EST
Civil Twilight 6:15 AM EST 5:32 PM EST
Nautical Twilight 5:45 AM EST 6:02 PM EST
Astronomical Twilight 5:15 AM EST 6:32 PM EST
Moon 6:17 AM EST (11/13) 4:58 PM EST (11/13)
Length of Visible Light 11h 17m
Length of Day
10h 23m
Waning Crescent, 0% of the Moon is Illuminated
Nov 13
Waning Crescent
Nov 13
New
Nov 20
First Quarter
Nov 28
Full
Dec 6
Last Quarter

Hourly Weather History & Observations

Time (EST) Temp. Windchill Dew Point Humidity Pressure Visibility Wind Dir Wind Speed Gust Speed Precip Events Conditions
12:56 AM 63.0 °F - 60.1 °F 90% 30.22 in 10.0 mi South 3.5 mph - N/A   Clear
1:31 AM 60.8 °F - 57.2 °F 88% 30.20 in 2.5 mi Calm Calm - N/A   Clear
1:46 AM 59.0 °F - 57.2 °F 94% 30.20 in 0.5 mi Calm Calm - N/A Fog Fog
1:51 AM 57.2 °F - 55.4 °F 94% 30.20 in 0.2 mi Calm Calm - N/A Fog Fog
1:56 AM 59.0 °F - 55.9 °F 90% 30.21 in 0.2 mi Calm Calm - N/A Fog Fog
2:09 AM 59.0 °F - 57.2 °F 94% 30.20 in 0.8 mi Calm Calm - 0.01 in   Mist
2:14 AM 57.2 °F - 55.4 °F 94% 30.19 in 3.0 mi Calm Calm - 0.01 in   Scattered Clouds
2:32 AM 57.2 °F - 55.4 °F 94% 30.19 in 1.8 mi Calm Calm - 0.01 in   Partly Cloudy
2:43 AM 59.0 °F - 55.4 °F 88% 30.19 in 0.8 mi Calm Calm - 0.01 in   Scattered Clouds
2:56 AM 59.0 °F - 57.0 °F 93% 30.20 in 0.8 mi Calm Calm - 0.01 in   Scattered Clouds
3:03 AM 59.0 °F - 55.4 °F 88% 30.19 in 0.5 mi Calm Calm - N/A Fog Fog
3:09 AM 59.0 °F - 57.2 °F 94% 30.19 in 1.0 mi Calm Calm - N/A   Scattered Clouds
3:18 AM 60.8 °F - 57.2 °F 88% 30.18 in 1.5 mi Calm Calm - N/A   Partly Cloudy
3:25 AM 60.8 °F - 57.2 °F 88% 30.18 in 0.8 mi Calm Calm - N/A   Partly Cloudy
3:38 AM 57.2 °F - 55.4 °F 94% 30.19 in 0.8 mi Calm Calm - N/A   Mist
3:56 AM 57.9 °F - 55.0 °F 90% 30.19 in 0.5 mi Calm Calm - N/A Fog Fog
4:20 AM 59.0 °F - 55.4 °F 88% 30.18 in 1.2 mi Calm Calm - N/A   Scattered Clouds
4:24 AM 59.0 °F - 57.2 °F 94% 30.18 in 0.8 mi Calm Calm - N/A   Scattered Clouds
4:36 AM 59.0 °F - 57.2 °F 94% 30.18 in 0.5 mi Calm Calm - N/A Fog Fog
4:56 AM 57.0 °F - 55.0 °F 93% 30.19 in 0.2 mi Calm Calm - N/A Fog Fog
5:02 AM 57.2 °F - 55.4 °F 94% 30.19 in 0.5 mi Calm Calm - N/A Fog Fog
5:07 AM 60.8 °F - 57.2 °F 88% 30.19 in 1.0 mi Calm Calm - N/A   Mostly Cloudy
5:11 AM 59.0 °F - 57.2 °F 94% 30.19 in 2.0 mi Calm Calm - N/A   Mostly Cloudy
5:19 AM 57.2 °F - 55.4 °F 94% 30.19 in 1.0 mi Calm Calm - N/A   Mostly Cloudy
5:29 AM 57.2 °F - 55.4 °F 94% 30.19 in 2.0 mi Calm Calm - N/A   Scattered Clouds
5:56 AM 57.0 °F - 55.0 °F 93% 30.21 in 0.5 mi Calm Calm - N/A Fog Fog
6:05 AM 57.2 °F - 55.4 °F 94% 30.20 in 1.0 mi Calm Calm - N/A   Mostly Cloudy
6:37 AM 57.2 °F - 55.4 °F 94% 30.20 in 0.2 mi Calm Calm - N/A Fog Fog
6:44 AM 57.2 °F - 55.4 °F 94% 30.20 in 0.5 mi Calm Calm - N/A Fog Fog
6:56 AM 57.0 °F - 54.0 °F 89% 30.22 in 0.5 mi Calm Calm - N/A Fog Fog
7:06 AM 55.4 °F - 53.6 °F 94% 30.21 in 0.2 mi Calm Calm - N/A Fog Fog
7:26 AM 55.4 °F - 53.6 °F 94% 30.21 in 0.2 mi Calm Calm - N/A Fog Fog
7:38 AM 59.0 °F - 55.4 °F 88% 30.22 in 0.8 mi Calm Calm - N/A   Overcast
7:44 AM 59.0 °F - 57.2 °F 94% 30.22 in 2.0 mi Calm Calm - N/A   Overcast
7:52 AM 60.8 °F - 57.2 °F 88% 30.22 in 3.0 mi Calm Calm - N/A   Mostly Cloudy
7:56 AM 60.1 °F - 57.9 °F 93% 30.23 in 4.0 mi Calm Calm - N/A   Mostly Cloudy
8:56 AM 63.0 °F - 60.1 °F 90% 30.25 in 6.0 mi Calm Calm - N/A   Overcast
9:56 AM 64.9 °F - 62.1 °F 90% 30.26 in 10.0 mi West 4.6 mph - N/A   Overcast
10:20 AM 66.2 °F - 62.6 °F 88% 30.25 in 10.0 mi West 9.2 mph - 0.00 in Rain Light Rain
10:49 AM 66.2 °F - 62.6 °F 88% 30.25 in 8.0 mi WNW 6.9 mph - 0.00 in Rain Light Rain
10:56 AM 66.0 °F - 63.0 °F 90% 30.25 in 9.0 mi NW 8.1 mph - 0.00 in   Overcast
11:13 AM 66.2 °F - 62.6 °F 88% 30.24 in 8.0 mi NNW 11.5 mph - 0.00 in   Overcast
11:56 AM 62.1 °F - 57.9 °F 86% 30.25 in 10.0 mi North 9.2 mph - 0.00 in   Overcast
12:56 PM 60.1 °F - 55.9 °F 86% 30.24 in 10.0 mi North 10.4 mph - N/A   Overcast
1:56 PM 59.0 °F - 54.0 °F 83% 30.24 in 10.0 mi North 13.8 mph 18.4 mph N/A   Overcast
2:56 PM 55.0 °F - 51.1 °F 86% 30.25 in 7.0 mi North 13.8 mph 21.9 mph 0.01 in Rain Light Rain
3:56 PM 53.1 °F - 48.9 °F 86% 30.28 in 10.0 mi North 13.8 mph - 0.00 in   Overcast
4:33 PM 51.8 °F - 48.2 °F 88% 30.27 in 2.5 mi North 10.4 mph 20.7 mph 0.03 in Rain Light Rain
4:41 PM 51.8 °F - 46.4 °F 82% 30.27 in 5.0 mi North 13.8 mph - 0.04 in Rain Light Rain
4:56 PM 51.1 °F - 46.9 °F 86% 30.29 in 10.0 mi North 13.8 mph - 0.04 in Rain Light Rain
5:56 PM 50.0 °F - 46.9 °F 89% 30.30 in 9.0 mi NNE 16.1 mph 24.2 mph 0.00 in   Overcast
6:56 PM 50.0 °F - 46.0 °F 86% 30.32 in 9.0 mi North 17.3 mph 20.7 mph N/A   Overcast
7:56 PM 48.0 °F - 44.1 °F 86% 30.35 in 10.0 mi NNE 13.8 mph 18.4 mph N/A   Overcast
8:15 PM 48.2 °F - 42.8 °F 82% 30.34 in 10.0 mi NNE 17.3 mph 24.2 mph N/A   Overcast
8:56 PM 48.0 °F - 43.0 °F 83% 30.36 in 10.0 mi North 10.4 mph 18.4 mph N/A   Overcast
9:56 PM 48.0 °F - 43.0 °F 83% 30.37 in 10.0 mi North 10.4 mph 23.0 mph N/A   Overcast
10:56 PM 46.0 °F 40.2 °F 42.1 °F 86% 30.36 in 10.0 mi North 12.7 mph 19.6 mph N/A   Overcast
11:56 PM 46.0 °F 39.6 °F 41.0 °F 83% 30.36 in 10.0 mi North 15.0 mph 19.6 mph N/A   Overcast